Location: Mahannah Oil Field
(37.4664°N, 96.6003°W)
Time: 03:04:22
(UTC+00:00)

deb Explorer IX - Pass Details

Date: 21 January 2021
Orbit: 537 x 1102 km, 38.8° (Epoch: 01 March)

Event Time Altitude Azimuth Distance (km) Brightness Sun altitude
Rises 07:48:09 0° 270° (W) 2,793 - -66.6°
Reaches altitude 10° 07:52:28 10° 229° (SW) 1,811 - -66.0°
Maximum altitude 07:53:11 10° 219° (SW) 1,777 - -65.9°
Drops below altitude 10° 07:53:53 10° 209° (SSW) 1,793 - -65.8°
Sets 07:58:03 0° 166° (SSE) 2,665 - -65.2°
